Time,TemperatureF,DewpointF,PressureIn,WindDirection,WindDirectionDegrees,WindSpeedMPH,WindSpeedGustMPH,Humidity,HourlyPrecipIn,Conditions,Clouds,dailyrainin,SoftwareType,DateUTC
2013-10-21 00:00:00,44.6,39.1,30.05,NE,40,4.0,4.0,81,0.00,,CLR,0.00,VWS V14.01,2013-10-21 04:00:00,
2013-10-21 00:01:00,44.6,39.1,30.05,NE,40,4.0,4.0,81,0.00,,CLR,0.00,VWS V14.01,2013-10-21 04:01:00,
2013-10-21 00:14:00,44.6,39.1,30.05,NE,40,4.0,4.0,81,0.00,,CLR,0.00,VWS V14.01,2013-10-21 04:14:00,
2013-10-21 00:18:00,44.6,39.1,30.05,NE,40,4.0,4.0,81,0.00,,CLR,0.00,VWS V14.01,2013-10-21 04:18:00,
2013-10-21 00:28:00,44.6,39.1,30.05,NE,40,4.0,4.0,81,0.00,,CLR,0.00,VWS V14.01,2013-10-21 04:28:00,
2013-10-21 00:44:00,44.6,39.1,30.05,NE,40,4.0,4.0,81,0.00,,CLR,0.00,VWS V14.01,2013-10-21 04:44:00,
2013-10-21 00:51:00,44.6,39.1,30.05,NE,40,4.0,4.0,81,0.00,,CLR,0.00,VWS V14.01,2013-10-21 04:51:00,
2013-10-21 00:56:00,44.6,39.1,30.05,NE,40,4.0,4.0,81,0.00,,CLR,0.00,VWS V14.01,2013-10-21 04:56:00,
2013-10-21 01:01:00,42.8,37.4,30.06,NE,40,3.0,3.0,81,0.00,,CLR,0.00,VWS V14.01,2013-10-21 05:01:00,
2013-10-21 01:13:00,42.8,37.4,30.06,NE,40,3.0,3.0,81,0.00,,CLR,0.00,VWS V14.01,2013-10-21 05:13:00,
2013-10-21 01:20:00,42.8,37.4,30.06,NE,40,3.0,3.0,81,0.00,,CLR,0.00,VWS V14.01,2013-10-21 05:20:00,
2013-10-21 01:32:00,42.8,37.4,30.06,NE,40,3.0,3.0,81,0.00,,CLR,0.00,VWS V14.01,2013-10-21 05:32:00,
2013-10-21 01:44:00,42.8,37.4,30.06,NE,40,3.0,3.0,81,0.00,,CLR,0.00,VWS V14.01,2013-10-21 05:44:00,
2013-10-21 01:51:00,42.8,37.4,30.06,NE,40,3.0,3.0,81,0.00,,CLR,0.00,VWS V14.01,2013-10-21 05:51:00,
2013-10-21 01:56:00,42.8,37.4,30.06,NE,40,3.0,3.0,81,0.00,,CLR,0.00,VWS V14.01,2013-10-21 05:56:00,
2013-10-21 02:01:00,42.8,37.4,30.07,North,0,0.0,0.0,81,0.00,,CLR,0.00,VWS V14.01,2013-10-21 06:01:00,
2013-10-21 02:18:00,42.8,37.4,30.07,North,0,0.0,0.0,81,0.00,,CLR,0.00,VWS V14.01,2013-10-21 06:18:00,
2013-10-21 02:31:00,42.8,37.4,30.07,North,0,0.0,0.0,81,0.00,,CLR,0.00,VWS V14.01,2013-10-21 06:31:00,
2013-10-21 02:36:00,42.8,37.4,30.07,North,0,0.0,0.0,81,0.00,,CLR,0.00,VWS V14.01,2013-10-21 06:36:00,
2013-10-21 02:50:00,42.8,37.4,30.07,North,0,0.0,0.0,81,0.00,,CLR,0.00,VWS V14.01,2013-10-21 06:50:00,
2013-10-21 02:55:00,42.8,37.4,30.07,North,0,0.0,0.0,81,0.00,,CLR,0.00,VWS V14.01,2013-10-21 06:55:00,
2013-10-21 02:56:00,42.8,39.2,30.07,North,0,0.0,0.0,87,0.00,,CLR,0.00,VWS V14.01,2013-10-21 06:56:00,
2013-10-21 03:00:00,42.8,39.2,30.07,North,0,0.0,0.0,87,0.00,,CLR,0.00,VWS V14.01,2013-10-21 07:00:00,
2013-10-21 03:05:00,42.8,39.2,30.07,North,0,0.0,0.0,87,0.00,,CLR,0.00,VWS V14.01,2013-10-21 07:05:00,
2013-10-21 03:20:00,42.8,39.2,30.07,North,0,0.0,0.0,87,0.00,,CLR,0.00,VWS V14.01,2013-10-21 07:20:00,
2013-10-21 03:25:00,42.8,39.2,30.07,North,0,0.0,0.0,87,0.00,,CLR,0.00,VWS V14.01,2013-10-21 07:25:00,
2013-10-21 03:34:00,42.8,39.2,30.07,North,0,0.0,0.0,87,0.00,,CLR,0.00,VWS V14.01,2013-10-21 07:34:00,
2013-10-21 03:39:00,42.8,39.2,30.07,North,0,0.0,0.0,87,0.00,,CLR,0.00,VWS V14.01,2013-10-21 07:39:00,
2013-10-21 03:50:00,42.8,39.2,30.07,North,0,0.0,0.0,87,0.00,,CLR,0.00,VWS V14.01,2013-10-21 07:50:00,
2013-10-21 03:55:00,42.8,39.2,30.07,North,0,0.0,0.0,87,0.00,,CLR,0.00,VWS V14.01,2013-10-21 07:55:00,
2013-10-21 03:56:00,41.0,37.4,30.08,North,0,0.0,0.0,87,0.00,,CLR,0.00,VWS V14.01,2013-10-21 07:56:00,
2013-10-21 04:00:00,41.0,37.4,30.08,North,0,0.0,0.0,87,0.00,,CLR,0.00,VWS V14.01,2013-10-21 08:00:00,
2013-10-21 04:05:00,41.0,37.4,30.08,North,0,0.0,0.0,87,0.00,,CLR,0.00,VWS V14.01,2013-10-21 08:05:00,
2013-10-21 04:16:00,41.0,37.4,30.08,North,0,0.0,0.0,87,0.00,,CLR,0.00,VWS V14.01,2013-10-21 08:16:00,
2013-10-21 04:22:00,41.0,37.4,30.08,North,0,0.0,0.0,87,0.00,,CLR,0.00,VWS V14.01,2013-10-21 08:22:00,
2013-10-21 04:27:00,41.0,37.4,30.08,North,0,0.0,0.0,87,0.00,,CLR,0.00,VWS V14.01,2013-10-21 08:27:00,
2013-10-21 04:32:00,41.0,37.4,30.08,North,0,0.0,0.0,87,0.00,,CLR,0.00,VWS V14.01,2013-10-21 08:32:00,
2013-10-21 04:37:00,41.0,37.4,30.08,North,0,0.0,0.0,87,0.00,,CLR,0.00,VWS V14.01,2013-10-21 08:37:00,
2013-10-21 04:46:00,41.0,37.4,30.08,North,0,0.0,0.0,87,0.00,,CLR,0.00,VWS V14.01,2013-10-21 08:46:00,
2013-10-21 04:52:00,41.0,37.4,30.08,North,0,0.0,0.0,87,0.00,,CLR,0.00,VWS V14.01,2013-10-21 08:52:00,
2013-10-21 04:56:00,39.2,37.3,30.09,NE,40,3.0,3.0,93,0.00,,CLR,0.00,VWS V14.01,2013-10-21 08:56:00,
2013-10-21 04:57:00,41.0,37.4,30.08,North,0,0.0,0.0,87,0.00,,CLR,0.00,VWS V14.01,2013-10-21 08:57:00,
2013-10-21 05:02:00,39.2,37.3,30.09,NE,40,3.0,3.0,93,0.00,,CLR,0.00,VWS V14.01,2013-10-21 09:02:00,
2013-10-21 05:07:00,39.2,37.3,30.09,NE,40,3.0,3.0,93,0.00,,CLR,0.00,VWS V14.01,2013-10-21 09:07:00,
2013-10-21 05:19:00,39.2,37.3,30.09,NE,40,3.0,3.0,93,0.00,,CLR,0.00,VWS V14.01,2013-10-21 09:19:00,
2013-10-21 05:24:00,39.2,37.3,30.09,NE,40,3.0,3.0,93,0.00,,CLR,0.00,VWS V14.01,2013-10-21 09:24:00,
2013-10-21 05:39:00,39.2,37.3,30.09,NE,40,3.0,3.0,93,0.00,,CLR,0.00,VWS V14.01,2013-10-21 09:39:00,
2013-10-21 05:47:00,39.2,37.3,30.09,NE,40,3.0,3.0,93,0.00,,CLR,0.00,VWS V14.01,2013-10-21 09:47:00,
2013-10-21 05:52:00,39.2,37.3,30.09,NE,40,3.0,3.0,93,0.00,,CLR,0.00,VWS V14.01,2013-10-21 09:52:00,
2013-10-21 05:56:00,37.4,35.6,30.10,North,0,0.0,0.0,93,0.00,,CLR,0.00,VWS V14.01,2013-10-21 09:56:00,
2013-10-21 05:57:00,39.2,37.3,30.09,NE,40,3.0,3.0,93,0.00,,CLR,0.00,VWS V14.01,2013-10-21 09:57:00,
2013-10-21 06:02:00,37.4,35.6,30.10,North,0,0.0,0.0,93,0.00,,CLR,0.00,VWS V14.01,2013-10-21 10:02:00,
2013-10-21 06:07:00,37.4,35.6,30.10,North,0,0.0,0.0,93,0.00,,CLR,0.00,VWS V14.01,2013-10-21 10:07:00,
2013-10-21 06:13:00,37.4,35.6,30.10,North,0,0.0,0.0,93,0.00,,CLR,0.00,VWS V14.01,2013-10-21 10:13:00,
2013-10-21 06:22:00,37.4,35.6,30.10,North,0,0.0,0.0,93,0.00,,CLR,0.00,VWS V14.01,2013-10-21 10:22:00,
2013-10-21 06:27:00,37.4,35.6,30.10,North,0,0.0,0.0,93,0.00,,CLR,0.00,VWS V14.01,2013-10-21 10:27:00,
2013-10-21 06:33:00,37.4,35.6,30.10,North,0,0.0,0.0,93,0.00,,CLR,0.00,VWS V14.01,2013-10-21 10:33:00,
2013-10-21 06:41:00,37.4,35.6,30.10,North,0,0.0,0.0,93,0.00,,CLR,0.00,VWS V14.01,2013-10-21 10:41:00,
2013-10-21 06:48:00,37.4,35.6,30.10,North,0,0.0,0.0,93,0.00,,CLR,0.00,VWS V14.01,2013-10-21 10:48:00,
2013-10-21 06:53:00,37.4,35.6,30.10,North,0,0.0,0.0,93,0.00,,CLR,0.00,VWS V14.01,2013-10-21 10:53:00,
2013-10-21 06:56:00,39.2,37.3,30.11,NNE,20,3.0,3.0,93,0.00,,CLR,0.00,VWS V14.01,2013-10-21 10:56:00,
2013-10-21 06:58:00,37.4,35.6,30.10,North,0,0.0,0.0,93,0.00,,CLR,0.00,VWS V14.01,2013-10-21 10:58:00,
2013-10-21 07:03:00,39.2,37.3,30.11,NNE,20,3.0,3.0,93,0.00,,CLR,0.00,VWS V14.01,2013-10-21 11:03:00,
2013-10-21 07:10:00,39.2,37.3,30.11,NNE,20,3.0,3.0,93,0.00,,CLR,0.00,VWS V14.01,2013-10-21 11:10:00,
2013-10-21 07:15:00,39.2,37.3,30.11,NNE,20,3.0,3.0,93,0.00,,CLR,0.00,VWS V14.01,2013-10-21 11:15:00,
2013-10-21 07:22:00,39.2,37.3,30.11,NNE,20,3.0,3.0,93,0.00,,CLR,0.00,VWS V14.01,2013-10-21 11:22:00,
2013-10-21 07:28:00,39.2,37.3,30.11,NNE,20,3.0,3.0,93,0.00,,CLR,0.00,VWS V14.01,2013-10-21 11:28:00,
2013-10-21 07:39:00,39.2,37.3,30.11,NNE,20,3.0,3.0,93,0.00,,CLR,0.00,VWS V14.01,2013-10-21 11:39:00,
2013-10-21 07:48:00,39.2,37.3,30.11,NNE,20,3.0,3.0,93,0.00,,CLR,0.00,VWS V14.01,2013-10-21 11:48:00,
2013-10-21 07:53:00,39.2,37.3,30.11,NNE,20,3.0,3.0,93,0.00,,CLR,0.00,VWS V14.01,2013-10-21 11:53:00,
2013-10-21 07:56:00,41.0,37.4,30.13,North,0,0.0,0.0,87,0.00,,CLR,0.00,VWS V14.01,2013-10-21 11:56:00,
2013-10-21 07:58:00,39.2,37.3,30.11,NNE,20,3.0,3.0,93,0.00,,CLR,0.00,VWS V14.01,2013-10-21 11:58:00,
2013-10-21 08:03:00,41.0,37.4,30.13,North,0,0.0,0.0,87,0.00,,CLR,0.00,VWS V14.01,2013-10-21 12:03:00,
2013-10-21 08:14:00,41.0,37.4,30.13,North,0,0.0,0.0,87,0.00,,CLR,0.00,VWS V14.01,2013-10-21 12:14:00,
2013-10-21 08:19:00,41.0,37.4,30.13,North,0,0.0,0.0,87,0.00,,CLR,0.00,VWS V14.01,2013-10-21 12:19:00,
2013-10-21 08:30:00,41.0,37.4,30.13,North,0,0.0,0.0,87,0.00,,CLR,0.00,VWS V14.01,2013-10-21 12:30:00,
2013-10-21 08:42:00,41.0,37.4,30.13,North,0,0.0,0.0,87,0.00,,CLR,0.00,VWS V14.01,2013-10-21 12:42:00,
2013-10-21 08:49:00,41.0,37.4,30.13,North,0,0.0,0.0,87,0.00,,CLR,0.00,VWS V14.01,2013-10-21 12:49:00,
2013-10-21 08:54:00,41.0,37.4,30.13,North,0,0.0,0.0,87,0.00,,CLR,0.00,VWS V14.01,2013-10-21 12:54:00,
2013-10-21 08:56:00,53.6,40.9,30.14,West,270,5.0,5.0,62,0.00,,CLR,0.00,VWS V14.01,2013-10-21 12:56:00,
2013-10-21 08:59:00,41.0,37.4,30.13,North,0,0.0,0.0,87,0.00,,CLR,0.00,VWS V14.01,2013-10-21 12:59:00,
2013-10-21 09:04:00,53.6,40.9,30.14,West,270,5.0,5.0,62,0.00,,CLR,0.00,VWS V14.01,2013-10-21 13:04:00,
2013-10-21 09:10:00,53.6,40.9,30.14,West,270,5.0,5.0,62,0.00,,CLR,0.00,VWS V14.01,2013-10-21 13:10:00,
2013-10-21 09:15:00,53.6,40.9,30.14,West,270,5.0,5.0,62,0.00,,CLR,0.00,VWS V14.01,2013-10-21 13:15:00,
2013-10-21 09:20:00,53.6,40.9,30.14,West,270,5.0,5.0,62,0.00,,CLR,0.00,VWS V14.01,2013-10-21 13:20:00,
2013-10-21 09:43:00,53.6,40.9,30.14,West,270,5.0,5.0,62,0.00,,CLR,0.00,VWS V14.01,2013-10-21 13:43:00,
2013-10-21 09:50:00,53.6,40.9,30.14,West,270,5.0,5.0,62,0.00,,CLR,0.00,VWS V14.01,2013-10-21 13:50:00,
2013-10-21 09:55:00,53.6,40.9,30.14,West,270,5.0,5.0,62,0.00,,CLR,0.00,VWS V14.01,2013-10-21 13:55:00,
2013-10-21 09:56:00,57.2,41.2,30.14,WNW,300,4.0,4.0,55,0.00,,CLR,0.00,VWS V14.01,2013-10-21 13:56:00,
2013-10-21 10:00:00,57.2,41.2,30.14,WNW,300,4.0,5.0,55,0.00,,CLR,0.00,VWS V14.01,2013-10-21 14:00:00,
2013-10-21 10:05:00,57.2,41.2,30.14,WNW,300,4.0,4.0,55,0.00,,CLR,0.00,VWS V14.01,2013-10-21 14:05:00,
2013-10-21 10:11:00,57.2,41.2,30.14,WNW,300,4.0,4.0,55,0.00,,CLR,0.00,VWS V14.01,2013-10-21 14:11:00,
2013-10-21 10:23:00,57.2,41.2,30.14,WNW,300,4.0,4.0,55,0.00,,CLR,0.00,VWS V14.01,2013-10-21 14:23:00,
2013-10-21 10:36:00,57.2,41.2,30.14,WNW,300,4.0,4.0,55,0.00,,CLR,0.00,VWS V14.01,2013-10-21 14:36:00,
2013-10-21 10:52:00,57.2,41.2,30.14,WNW,300,4.0,4.0,55,0.00,,CLR,0.00,VWS V14.01,2013-10-21 14:52:00,
2013-10-21 10:56:00,60.8,44.5,30.13,SW,220,8.0,8.0,55,0.00,,CLR,0.00,VWS V14.01,2013-10-21 14:56:00,
2013-10-21 10:57:00,57.2,41.2,30.14,WNW,300,4.0,4.0,55,0.00,,CLR,0.00,VWS V14.01,2013-10-21 14:57:00,
2013-10-21 11:02:00,60.8,44.5,30.13,SW,220,8.0,8.0,55,0.00,,CLR,0.00,VWS V14.01,2013-10-21 15:02:00,
2013-10-21 11:07:00,60.8,44.5,30.13,SW,220,8.0,8.0,55,0.00,,CLR,0.00,VWS V14.01,2013-10-21 15:07:00,
2013-10-21 11:13:00,60.8,44.5,30.13,SW,220,8.0,8.0,55,0.00,,CLR,0.00,VWS V14.01,2013-10-21 15:13:00,
2013-10-21 11:18:00,60.8,44.5,30.13,SW,220,8.0,8.0,55,0.00,,CLR,0.00,VWS V14.01,2013-10-21 15:18:00,
2013-10-21 11:23:00,60.8,44.5,30.13,SW,220,8.0,8.0,55,0.00,,CLR,0.00,VWS V14.01,2013-10-21 15:23:00,
2013-10-21 11:29:00,60.8,44.5,30.13,SW,220,8.0,8.0,55,0.00,,CLR,0.00,VWS V14.01,2013-10-21 15:29:00,
2013-10-21 11:36:00,60.8,44.5,30.13,SW,220,8.0,8.0,55,0.00,,CLR,0.00,VWS V14.01,2013-10-21 15:36:00,
2013-10-21 11:44:00,60.8,44.5,30.13,SW,220,8.0,8.0,55,0.00,,CLR,0.00,VWS V14.01,2013-10-21 15:44:00,
2013-10-21 11:50:00,60.8,44.5,30.13,SW,220,8.0,8.0,55,0.00,,CLR,0.00,VWS V14.01,2013-10-21 15:50:00,
2013-10-21 11:55:00,60.8,44.5,30.13,SW,220,8.0,8.0,55,0.00,,CLR,0.00,VWS V14.01,2013-10-21 15:55:00,
2013-10-21 11:56:00,62.6,46.2,30.12,SW,230,9.0,9.0,55,0.00,,CLR,0.00,VWS V14.01,2013-10-21 15:56:00,
2013-10-21 12:00:00,62.6,46.2,30.12,SW,230,9.0,9.0,55,0.00,,CLR,0.00,VWS V14.01,2013-10-21 16:00:00,
2013-10-21 12:05:00,62.6,46.2,30.12,SW,230,9.0,9.0,55,0.00,,CLR,0.00,VWS V14.01,2013-10-21 16:05:00,
2013-10-21 12:10:00,62.6,46.2,30.12,SW,230,9.0,9.0,55,0.00,,CLR,0.00,VWS V14.01,2013-10-21 16:10:00,
2013-10-21 12:15:00,62.6,46.2,30.12,SW,230,9.0,9.0,55,0.00,,CLR,0.00,VWS V14.01,2013-10-21 16:15:00,
2013-10-21 12:21:00,62.6,46.2,30.12,SW,230,9.0,9.0,55,0.00,,CLR,0.00,VWS V14.01,2013-10-21 16:21:00,
2013-10-21 12:35:00,62.6,46.2,30.12,SW,230,9.0,9.0,55,0.00,,CLR,0.00,VWS V14.01,2013-10-21 16:35:00,
2013-10-21 12:46:00,62.6,46.2,30.12,SW,230,9.0,9.0,55,0.00,,CLR,0.00,VWS V14.01,2013-10-21 16:46:00,
2013-10-21 12:51:00,62.6,46.2,30.12,SW,230,9.0,9.0,55,0.00,,CLR,0.00,VWS V14.01,2013-10-21 16:51:00,
2013-10-21 12:56:00,62.6,46.2,30.12,SW,230,9.0,9.0,55,0.00,,CLR,0.00,VWS V14.01,2013-10-21 16:56:00,
2013-10-21 13:01:00,62.6,46.2,30.10,WSW,240,11.0,11.0,55,0.00,,CLR,0.00,VWS V14.01,2013-10-21 17:01:00,
2013-10-21 13:07:00,62.6,46.2,30.10,WSW,240,11.0,11.0,55,0.00,,CLR,0.00,VWS V14.01,2013-10-21 17:07:00,
2013-10-21 13:12:00,62.6,46.2,30.10,WSW,240,11.0,11.0,55,0.00,,CLR,0.00,VWS V14.01,2013-10-21 17:12:00,
2013-10-21 13:20:00,62.6,46.2,30.10,WSW,240,11.0,11.0,55,0.00,,CLR,0.00,VWS V14.01,2013-10-21 17:20:00,
2013-10-21 13:25:00,62.6,46.2,30.10,WSW,240,11.0,11.0,55,0.00,,CLR,0.00,VWS V14.01,2013-10-21 17:25:00,
2013-10-21 13:40:00,62.6,46.2,30.10,WSW,240,11.0,11.0,55,0.00,,CLR,0.00,VWS V14.01,2013-10-21 17:40:00,
2013-10-21 13:51:00,62.6,46.2,30.10,WSW,240,11.0,11.0,55,0.00,,CLR,0.00,VWS V14.01,2013-10-21 17:51:00,
2013-10-21 13:56:00,62.6,46.2,30.10,WSW,240,11.0,11.0,55,0.00,,CLR,0.00,VWS V14.01,2013-10-21 17:56:00,
2013-10-21 14:01:00,64.4,44.8,30.07,SW,230,10.0,10.0,49,0.00,,CLR,0.00,VWS V14.01,2013-10-21 18:01:00,
2013-10-21 14:08:00,64.4,44.8,30.07,SW,230,10.0,10.0,49,0.00,,CLR,0.00,VWS V14.01,2013-10-21 18:08:00,
2013-10-21 14:19:00,64.4,44.8,30.07,SW,230,10.0,10.0,49,0.00,,CLR,0.00,VWS V14.01,2013-10-21 18:19:00,
2013-10-21 14:24:00,64.4,44.8,30.07,SW,230,10.0,10.0,49,0.00,,CLR,0.00,VWS V14.01,2013-10-21 18:24:00,
2013-10-21 14:29:00,64.4,44.8,30.07,SW,230,10.0,10.0,49,0.00,,CLR,0.00,VWS V14.01,2013-10-21 18:29:00,
2013-10-21 14:36:00,64.4,44.8,30.07,SW,230,10.0,10.0,49,0.00,,CLR,0.00,VWS V14.01,2013-10-21 18:36:00,
2013-10-21 14:44:00,64.4,44.8,30.07,SW,230,10.0,10.0,49,0.00,,CLR,0.00,VWS V14.01,2013-10-21 18:44:00,
2013-10-21 14:50:00,64.4,44.8,30.07,SW,230,10.0,10.0,49,0.00,,CLR,0.00,VWS V14.01,2013-10-21 18:50:00,
2013-10-21 14:55:00,64.4,44.8,30.07,SW,230,10.0,10.0,49,0.00,,CLR,0.00,VWS V14.01,2013-10-21 18:55:00,
2013-10-21 14:56:00,64.4,42.6,30.06,SW,230,9.0,9.0,45,0.00,,CLR,0.00,VWS V14.01,2013-10-21 18:56:00,
2013-10-21 15:00:00,64.4,44.8,30.07,SW,230,10.0,10.0,49,0.00,,CLR,0.00,VWS V14.01,2013-10-21 19:00:00,
2013-10-21 15:04:00,64.4,42.6,30.06,SW,230,9.0,9.0,45,0.00,,CLR,0.00,VWS V14.01,2013-10-21 19:04:00,
2013-10-21 15:13:00,64.4,42.6,30.06,SW,230,9.0,9.0,45,0.00,,CLR,0.00,VWS V14.01,2013-10-21 19:13:00,
2013-10-21 15:23:00,64.4,42.6,30.06,SW,230,9.0,9.0,45,0.00,,CLR,0.00,VWS V14.01,2013-10-21 19:23:00,
2013-10-21 15:32:00,64.4,42.6,30.06,SW,230,9.0,9.0,45,0.00,,CLR,0.00,VWS V14.01,2013-10-21 19:32:00,
2013-10-21 15:39:00,64.4,42.6,30.06,SW,230,9.0,9.0,45,0.00,,CLR,0.00,VWS V14.01,2013-10-21 19:39:00,
2013-10-21 15:46:00,64.4,42.6,30.06,SW,230,9.0,9.0,45,0.00,,CLR,0.00,VWS V14.01,2013-10-21 19:46:00,
2013-10-21 15:52:00,64.4,42.6,30.06,SW,230,9.0,9.0,45,0.00,,CLR,0.00,VWS V14.01,2013-10-21 19:52:00,
2013-10-21 15:56:00,62.6,41.0,30.05,SW,230,6.0,6.0,45,0.00,,CLR,0.00,VWS V14.01,2013-10-21 19:56:00,
2013-10-21 15:57:00,64.4,42.6,30.06,SW,230,9.0,9.0,45,0.00,,CLR,0.00,VWS V14.01,2013-10-21 19:57:00,
2013-10-21 16:02:00,62.6,41.0,30.05,SW,230,6.0,6.0,45,0.00,,CLR,0.00,VWS V14.01,2013-10-21 20:02:00,
2013-10-21 16:12:00,62.6,41.0,30.05,SW,230,6.0,6.0,45,0.00,,CLR,0.00,VWS V14.01,2013-10-21 20:12:00,
2013-10-21 16:20:00,62.6,41.0,30.05,SW,230,6.0,6.0,45,0.00,,CLR,0.00,VWS V14.01,2013-10-21 20:20:00,
2013-10-21 16:27:00,62.6,41.0,30.05,SW,230,6.0,6.0,45,0.00,,CLR,0.00,VWS V14.01,2013-10-21 20:27:00,
2013-10-21 16:38:00,62.6,41.0,30.05,SW,230,6.0,6.0,45,0.00,,CLR,0.00,VWS V14.01,2013-10-21 20:38:00,
2013-10-21 16:46:00,62.6,41.0,30.05,SW,230,6.0,6.0,45,0.00,,CLR,0.00,VWS V14.01,2013-10-21 20:46:00,
2013-10-21 16:52:00,62.6,41.0,30.05,SW,230,6.0,6.0,45,0.00,,CLR,0.00,VWS V14.01,2013-10-21 20:52:00,
2013-10-21 16:56:00,62.6,44.8,30.05,SSW,200,6.0,6.0,52,0.00,,CLR,0.00,VWS V14.01,2013-10-21 20:56:00,
2013-10-21 16:57:00,62.6,41.0,30.05,SW,230,6.0,6.0,45,0.00,,CLR,0.00,VWS V14.01,2013-10-21 20:57:00,
2013-10-21 17:02:00,62.6,44.8,30.05,SSW,200,6.0,6.0,52,0.00,,CLR,0.00,VWS V14.01,2013-10-21 21:02:00,
2013-10-21 17:14:00,62.6,44.8,30.05,SSW,200,6.0,6.0,52,0.00,,CLR,0.00,VWS V14.01,2013-10-21 21:14:00,
2013-10-21 17:19:00,62.6,44.8,30.05,SSW,200,6.0,6.0,52,0.00,,CLR,0.00,VWS V14.01,2013-10-21 21:19:00,
2013-10-21 17:24:00,62.6,44.8,30.05,SSW,200,6.0,6.0,52,0.00,,CLR,0.00,VWS V14.01,2013-10-21 21:24:00,
2013-10-21 17:39:00,62.6,44.8,30.05,SSW,200,6.0,6.0,52,0.00,,CLR,0.00,VWS V14.01,2013-10-21 21:39:00,
2013-10-21 17:44:00,62.6,44.8,30.05,SSW,200,6.0,6.0,52,0.00,,CLR,0.00,VWS V14.01,2013-10-21 21:44:00,
2013-10-21 17:49:00,62.6,44.8,30.05,SSW,200,6.0,6.0,52,0.00,,CLR,0.00,VWS V14.01,2013-10-21 21:49:00,
2013-10-21 17:54:00,62.6,44.8,30.05,SSW,200,6.0,6.0,52,0.00,,CLR,0.00,VWS V14.01,2013-10-21 21:54:00,
2013-10-21 17:56:00,60.8,46.4,30.05,SSW,200,13.0,13.0,59,0.00,,CLR,0.00,VWS V14.01,2013-10-21 21:56:00,
2013-10-21 17:59:00,62.6,44.8,30.05,SSW,200,6.0,6.0,52,0.00,,CLR,0.00,VWS V14.01,2013-10-21 21:59:00,
2013-10-21 18:04:00,60.8,46.4,30.05,SSW,200,13.0,13.0,59,0.00,,CLR,0.00,VWS V14.01,2013-10-21 22:04:00,
2013-10-21 18:14:00,60.8,46.4,30.05,SSW,200,13.0,13.0,59,0.00,,CLR,0.00,VWS V14.01,2013-10-21 22:14:00,
2013-10-21 18:27:00,60.8,46.4,30.05,SSW,200,13.0,13.0,59,0.00,,CLR,0.00,VWS V14.01,2013-10-21 22:27:00,
2013-10-21 18:32:00,60.8,46.4,30.05,SSW,200,13.0,13.0,59,0.00,,CLR,0.00,VWS V14.01,2013-10-21 22:32:00,
2013-10-21 18:39:00,60.8,46.4,30.05,SSW,200,13.0,13.0,59,0.00,,CLR,0.00,VWS V14.01,2013-10-21 22:39:00,
2013-10-21 18:44:00,60.8,46.4,30.05,SSW,200,13.0,13.0,59,0.00,,CLR,0.00,VWS V14.01,2013-10-21 22:44:00,
2013-10-21 18:52:00,60.8,46.4,30.05,SSW,200,13.0,13.0,59,0.00,,CLR,0.00,VWS V14.01,2013-10-21 22:52:00,
2013-10-21 18:56:00,59.0,46.4,30.06,SSW,210,16.0,16.0,63,0.00,,CLR,0.00,VWS V14.01,2013-10-21 22:56:00,
2013-10-21 18:57:00,60.8,46.4,30.05,SSW,200,13.0,13.0,59,0.00,,CLR,0.00,VWS V14.01,2013-10-21 22:57:00,
2013-10-21 19:02:00,59.0,46.4,30.06,SSW,210,16.0,16.0,63,0.00,,CLR,0.00,VWS V14.01,2013-10-21 23:02:00,
2013-10-21 19:24:00,59.0,46.4,30.06,SSW,210,16.0,16.0,63,0.00,,CLR,0.00,VWS V14.01,2013-10-21 23:24:00,
2013-10-21 19:31:00,59.0,46.4,30.06,SSW,210,16.0,16.0,63,0.00,,CLR,0.00,VWS V14.01,2013-10-21 23:31:00,
2013-10-21 19:38:00,59.0,46.4,30.06,SSW,210,16.0,16.0,63,0.00,,CLR,0.00,VWS V14.01,2013-10-21 23:38:00,
2013-10-21 19:51:00,59.0,46.4,30.06,SSW,210,16.0,16.0,63,0.00,,CLR,0.00,VWS V14.01,2013-10-21 23:51:00,
2013-10-21 19:56:00,59.0,46.4,30.06,SSW,210,16.0,16.0,63,0.00,,CLR,0.00,VWS V14.01,2013-10-21 23:56:00,
2013-10-21 20:01:00,59.0,46.4,30.06,SW,220,14.0,16.0,63,0.00,,CLR,0.00,VWS V14.01,2013-10-22 00:01:00,
2013-10-21 20:07:00,59.0,46.4,30.06,SW,220,14.0,14.0,63,0.00,,CLR,0.00,VWS V14.01,2013-10-22 00:07:00,
2013-10-21 20:13:00,59.0,46.4,30.06,SW,220,14.0,14.0,63,0.00,,CLR,0.00,VWS V14.01,2013-10-22 00:13:00,
2013-10-21 20:19:00,59.0,46.4,30.06,SW,220,14.0,14.0,63,0.00,,CLR,0.00,VWS V14.01,2013-10-22 00:19:00,
2013-10-21 20:28:00,59.0,46.4,30.06,SW,220,14.0,14.0,63,0.00,,CLR,0.00,VWS V14.01,2013-10-22 00:28:00,
2013-10-21 20:33:00,59.0,46.4,30.06,SW,220,14.0,14.0,63,0.00,,CLR,0.00,VWS V14.01,2013-10-22 00:33:00,
2013-10-21 20:42:00,59.0,46.4,30.06,SW,220,14.0,14.0,63,0.00,,CLR,0.00,VWS V14.01,2013-10-22 00:42:00,
2013-10-21 20:48:00,59.0,46.4,30.06,SW,220,14.0,14.0,63,0.00,,CLR,0.00,VWS V14.01,2013-10-22 00:48:00,
2013-10-21 20:53:00,59.0,46.4,30.06,SW,220,14.0,14.0,63,0.00,,CLR,0.00,VWS V14.01,2013-10-22 00:53:00,
2013-10-21 20:56:00,59.0,46.4,30.06,SSW,210,16.0,16.0,63,0.00,,CLR,0.00,VWS V14.01,2013-10-22 00:56:00,
2013-10-21 20:58:00,59.0,46.4,30.06,SW,220,14.0,14.0,63,0.00,,CLR,0.00,VWS V14.01,2013-10-22 00:58:00,
2013-10-21 21:03:00,59.0,46.4,30.06,SSW,210,16.0,16.0,63,0.00,,CLR,0.00,VWS V14.01,2013-10-22 01:03:00,
2013-10-21 21:10:00,59.0,46.4,30.06,SSW,210,16.0,16.0,63,0.00,,CLR,0.00,VWS V14.01,2013-10-22 01:10:00,
2013-10-21 21:17:00,59.0,46.4,30.06,SSW,210,16.0,16.0,63,0.00,,CLR,0.00,VWS V14.01,2013-10-22 01:17:00,
2013-10-21 21:30:00,59.0,46.4,30.06,SSW,210,16.0,16.0,63,0.00,,CLR,0.00,VWS V14.01,2013-10-22 01:30:00,
2013-10-21 21:39:00,59.0,46.4,30.06,SSW,210,16.0,16.0,63,0.00,,CLR,0.00,VWS V14.01,2013-10-22 01:39:00,
2013-10-21 21:45:00,59.0,46.4,30.06,SSW,210,16.0,16.0,63,0.00,,CLR,0.00,VWS V14.01,2013-10-22 01:45:00,
2013-10-21 21:50:00,59.0,46.4,30.06,SSW,210,16.0,16.0,63,0.00,,CLR,0.00,VWS V14.01,2013-10-22 01:50:00,
2013-10-21 21:55:00,59.0,46.4,30.06,SSW,210,16.0,16.0,63,0.00,,CLR,0.00,VWS V14.01,2013-10-22 01:55:00,
2013-10-21 21:56:00,59.0,44.7,30.04,SSW,210,16.0,16.0,59,0.00,,CLR,0.00,VWS V14.01,2013-10-22 01:56:00,
2013-10-21 22:00:00,59.0,44.7,30.04,SSW,210,16.0,16.0,59,0.00,,CLR,0.00,VWS V14.01,2013-10-22 02:00:00,
2013-10-21 22:05:00,59.0,44.7,30.04,SSW,210,16.0,16.0,59,0.00,,CLR,0.00,VWS V14.01,2013-10-22 02:05:00,
2013-10-21 22:13:00,59.0,44.7,30.04,SSW,210,16.0,16.0,59,0.00,,CLR,0.00,VWS V14.01,2013-10-22 02:13:00,
2013-10-21 22:20:00,59.0,44.7,30.04,SSW,210,16.0,16.0,59,0.00,,CLR,0.00,VWS V14.01,2013-10-22 02:20:00,
2013-10-21 22:25:00,59.0,44.7,30.04,SSW,210,16.0,16.0,59,0.00,,CLR,0.00,VWS V14.01,2013-10-22 02:25:00,
2013-10-21 22:34:00,59.0,44.7,30.04,SSW,210,16.0,16.0,59,0.00,,CLR,0.00,VWS V14.01,2013-10-22 02:34:00,
2013-10-21 22:50:00,59.0,44.7,30.04,SSW,210,16.0,16.0,59,0.00,,CLR,0.00,VWS V14.01,2013-10-22 02:50:00,
2013-10-21 22:55:00,59.0,44.7,30.04,SSW,210,16.0,16.0,59,0.00,,CLR,0.00,VWS V14.01,2013-10-22 02:55:00,
2013-10-21 22:56:00,59.0,48.1,30.02,SSW,210,17.0,17.0,67,0.00,,CLR,0.00,VWS V14.01,2013-10-22 02:56:00,
2013-10-21 23:00:00,59.0,48.1,30.02,SSW,210,17.0,17.0,67,0.00,,CLR,0.00,VWS V14.01,2013-10-22 03:00:00,
2013-10-21 23:05:00,59.0,48.1,30.02,SSW,210,17.0,17.0,67,0.00,,CLR,0.00,VWS V14.01,2013-10-22 03:05:00,
2013-10-21 23:18:00,59.0,48.1,30.02,SSW,210,17.0,17.0,67,0.00,,CLR,0.00,VWS V14.01,2013-10-22 03:18:00,
2013-10-21 23:27:00,59.0,48.1,30.02,SSW,210,17.0,17.0,67,0.00,,CLR,0.00,VWS V14.01,2013-10-22 03:27:00,
2013-10-21 23:35:00,59.0,48.1,30.02,SSW,210,17.0,17.0,67,0.00,,CLR,0.00,VWS V14.01,2013-10-22 03:35:00,
2013-10-21 23:40:00,59.0,48.1,30.02,SSW,210,17.0,17.0,67,0.00,,CLR,0.00,VWS V14.01,2013-10-22 03:40:00,
2013-10-21 23:45:00,59.0,48.1,30.02,SSW,210,17.0,17.0,67,0.00,,CLR,0.00,VWS V14.01,2013-10-22 03:45:00,
2013-10-21 23:50:00,59.0,48.1,30.02,SSW,210,17.0,17.0,67,0.00,,CLR,0.00,VWS V14.01,2013-10-22 03:50:00,
2013-10-21 23:55:00,59.0,48.1,30.02,SSW,210,17.0,17.0,67,0.00,,CLR,0.00,VWS V14.01,2013-10-22 03:55:00,
2013-10-21 23:56:00,59.0,48.1,30.01,SSW,210,16.0,16.0,67,0.00,,CLR,0.00,VWS V14.01,2013-10-22 03:56:00,